Location: Peebles
(55.6412°N, 3.1714°W)
Time: 20:45:32
(UTC+01:00)

deb AGENA D - Pass Details

Date: 06 July 2022
Orbit: 951 x 1019 km, 99.8° (Epoch: 17 August)

Event Time Altitude Azimuth Distance (km) Brightness Sun altitude
Exits shadow 02:34:29 11° 183° (S) 2,712 ? -10.0°
Maximum altitude 02:40:24 53° 259° (W) 1,242 ? -9.7°
Drops below altitude 10° 02:46:35 10° 336° (NNW) 2,809 ? -9.4°
Sets 02:49:10 0° 341° (NNW) 3,757 ? -9.3°
